Hourly Data Report for October 21, 2012

All times are specified in Local Standard Time (LST). Add 1 hour to adjust for Daylight Saving Time where and when it is observed.

KITCHENER/WATERLOO
ONTARIO

43°27'39.000" N
80°22'43.000" W
321.60 m
6144239
71368
YKF

Download Data

Hourly Data (October 2012)
Hourly Data Report for October 21, 2012
Temp Definition
°C
Dew Point Temp Definition
°C
Rel Hum Definition
%
Wind Dir Definition
10's deg

Wind Spd Definition
km/h
Visibility Definition
km
Stn Press Definition
kPa
Hmdx Definition


Wind Chill Definition


Weather Definition


TIME
00:00 Legend Double Dagger 7.3 6.6 95 25 15 16.1 97.23     LegendNANA
01:00 Legend Double Dagger 7.5 6.8 95 26 13 16.1 97.27     LegendNANA
02:00 Legend Double Dagger 7.4 6.7 96 25 13 16.1 97.37     LegendNANA
03:00 Legend Double Dagger 7.7 6.8 94 25 15 16.1 97.42     LegendNANA
04:00 Legend Double Dagger 7.1 6.5 96 26 15 12.9 97.50     LegendNANA
05:00 Legend Double Dagger 7.4 6.8 96 27 15 9.7 97.57     LegendNANA
06:00 Legend Double Dagger 7.4 6.8 96 28 15 9.7 97.63     LegendNANA
07:00 Legend Double Dagger 7.5 6.9 96 27 18 9.7 97.72     LegendNANA
08:00 Legend Double Dagger 8.2 7.3 94 26 15 16.1 97.75     LegendNANA
09:00 Legend Double Dagger 9.6 7.9 89 27 18 16.1 97.80     LegendNANA
10:00 Legend Double Dagger 10.2 7.7 84 28 22 16.1 97.83     LegendNANA
11:00 Legend Double Dagger 11.2 7.7 79 26 22 16.1 97.89     LegendNANA
12:00 Legend Double Dagger 11.8 7.2 73 27 26 16.1 97.88     LegendNANA
13:00 Legend Double Dagger 12.5 6.9 69 26 24 16.1 97.85     LegendNANA
14:00 Legend Double Dagger 13.7 6.3 61 29 24 16.1 97.86     LegendNANA
15:00 Legend Double Dagger 14.2 6.0 57 26 22 16.1 97.88     LegendNANA
16:00 Legend Double Dagger 12.8 5.1 59 27 26 16.1 97.90     LegendNANA
17:00 Legend Double Dagger 11.3 5.2 66 28 21 16.1 97.94     LegendNANA
18:00 Legend Double Dagger 9.3 5.2 76 27 11 16.1 97.97     LegendNANA
19:00 Legend Double Dagger 7.6 4.8 82 26 4 16.1 98.00     LegendNANA
20:00 Legend Double Dagger 5.0 4.1 94 24 4 16.1 98.03     LegendNANA
21:00 Legend Double Dagger 4.4 3.7 95   0 16.1 98.05     LegendNANA
22:00 Legend Double Dagger 3.5 3.2 98   0 9.7 98.03     LegendNANA
23:00 Legend Double Dagger 5.6 4.7 94 22 4 16.1 98.07     LegendNANA

Notes on Data Quality.

Legend

  • E = Estimated
  • M = Missing
  • NA = Not Available
  • ‡ = Partner data that is not subject to review by the National Climate Archives
Date modified: